Regional Weather Roundup
Issued by NWS State College, PA

Home | Current Version | Previous Version | Graphics & Text | Print | Product List | Glossary Off
Versions: 1 2 3 4 5 6 7 8 9 10 11 12 13 14 15 16 17 18 19 20 21 22 23 24 25 26 27 28 29 30 31 32 33 34 35 36 37 38 39 40 41 42 43 44 45 46 47 48 49 50

679
ASUS41 KCTP 280310
RWRCTP

REGIONAL WEATHER ROUNDUP
NATIONAL WEATHER SERVICE STATE COLLEGE PA
1000 PM EST MON FEB 27 2017

Note: "fair" indicates few or no clouds below 12,000 feet with no
significant weather and/or obstructions to visibility.

* = STATION THAT DOES NOT REPORT PRECIPITATION /E.G. RAIN...SNOW...ETC/
    THUNDER OR FOG.

PAZ002>004-007>009-013>016-020>023-029>032-280400-
WESTERN PENNSYLVANIA

CITY           SKY/WX    TMP DP  RH WIND       PRES   REMARKS
ERIE           CLEAR     42  30  62 S10       30.25S
MEADVILLE      CLOUDY    40  34  79 S5        30.25S
FRANKLIN*      CLOUDY    39  32  75 S8        30.27F
NEW CASTLE     CLOUDY    41  37  86 CALM      30.28F
BEAVER COUNTY  NOT AVBL
BUTLER*        CLOUDY    39  37  93 SE3       30.28F
PITTSBURGH INT CLOUDY    40  39  97 CALM      30.27S
PITTSBURGH     CLOUDY    42  37  82 SE3       30.27R
INDIANA*       CLOUDY    41  39  93 E3        30.32R
LATROBE        CLOUDY    37  37 100 CALM      30.29S FOG
WASHINGTON CO* MOCLDY    37  36  93 CALM      30.28F
$$

PAZ004>006-010>012-017>019-024>028-033>037-041-042-045-046-049>053-280400-
CENTRAL PENNSYLVANIA

CITY           SKY/WX    TMP DP  RH WIND       PRES   REMARKS
BRADFORD       CLOUDY    37  33  85 VRB3      30.26R
DUBOIS         CLOUDY    39  34  82 CALM      30.27S
CLEARFIELD       N/A    N/A N/A N/A MISG      30.31R
JOHNSTOWN      MOCLDY    39  35  86 SW5       30.27R
ALTOONA        PTCLDY    38  34  85 CALM      30.31S
STATE COLLEGE  NOT AVBL
WILLIAMSPORT   CLOUDY    45  33  63 E6        30.34S
SELINSGROVE    CLOUDY    38  35  89 CALM      30.36S
FT INDIANTOWN  CLOUDY    37  36  94 CALM      30.37S
CAPITAL CITY   PTCLDY    41  32  70 CALM      30.37S
HARRISBURG     MOCLDY    42  35  76 E3        30.36S
YORK           CLOUDY    41  30  65 CALM      30.36F
$$

PAZ038>040-043-044-047-048-054-055-060>062-067>071-280400-
EASTERN PENNSYLVANIA

CITY           SKY/WX    TMP DP  RH WIND       PRES   REMARKS
SCRANTON       PTCLDY    43  31  62 CALM      30.34S
MOUNT POCONO   CLOUDY    37  31  78 SW3       30.32F
ALLENTOWN      MOCLDY    37  31  78 N3        30.39R
QUAKERTOWN*    CLEAR     36  32  87 CALM      30.40R
READING        PTCLDY    40  37  89 CALM      30.38R
LANCASTER      CLOUDY    41  35  79 E3        30.37F
COATESVILLE    CLOUDY    45  30  57 CALM      30.40R
POTTSTOWN      PTCLDY    37  31  78 CALM      30.40S
BLUE BELL      PTCLDY    45  32  61 CALM      30.39S
DOYLESTOWN     CLEAR     38  32  79 CALM      30.39R
WILLOW GROVE   NOT AVBL
NORTH PHILA    PTCLDY    49  30  48 CALM      30.41S
PHILADELPHIA   CLOUDY    48  31  51 CALM      30.41R
$$




USA.gov is the U.S. government's official web portal to all federal, state and local government web resources and services.